TimeCDT,TemperatureF,Dew PointF,Humidity,Sea Level PressureIn,VisibilityMPH,Wind Direction,Wind SpeedMPH,Gust SpeedMPH,PrecipitationIn,Events,Conditions,WindDirDegrees,DateUTC
12:53 AM,60.1,48.9,67,29.91,10.0,SE,9.2,-,N/A,,Clear,140,2012-11-03 05:53:00
1:53 AM,59.0,51.1,75,29.91,10.0,SSE,6.9,-,N/A,,Clear,150,2012-11-03 06:53:00
2:53 AM,59.0,51.1,75,29.92,10.0,SE,9.2,-,N/A,,Clear,140,2012-11-03 07:53:00
3:53 AM,57.9,52.0,81,29.92,10.0,SE,9.2,-,N/A,,Clear,140,2012-11-03 08:53:00
4:53 AM,55.9,52.0,87,29.94,10.0,SE,5.8,-,N/A,,Clear,130,2012-11-03 09:53:00
5:53 AM,57.9,54.0,87,29.98,10.0,ESE,3.5,-,N/A,,Clear,110,2012-11-03 10:53:00
6:53 AM,60.1,55.9,86,29.99,10.0,SSE,4.6,-,N/A,,Clear,150,2012-11-03 11:53:00
7:53 AM,55.9,53.1,90,30.02,10.0,Calm,Calm,-,N/A,,Clear,0,2012-11-03 12:53:00
8:53 AM,62.1,57.9,86,30.04,10.0,SSE,3.5,-,N/A,,Clear,150,2012-11-03 13:53:00
9:53 AM,66.0,57.0,73,30.04,10.0,SSE,8.1,-,N/A,,Clear,160,2012-11-03 14:53:00
10:53 AM,72.0,59.0,64,30.05,10.0,WSW,4.6,-,N/A,,Clear,250,2012-11-03 15:53:00
11:53 AM,73.9,57.9,57,30.05,10.0,NW,9.2,-,0.00,Rain,Light Rain,310,2012-11-03 16:53:00
12:53 PM,78.1,57.0,48,30.03,10.0,Calm,Calm,-,0.00,,Clear,0,2012-11-03 17:53:00
1:53 PM,79.0,55.9,45,30.01,10.0,Calm,Calm,-,N/A,,Clear,0,2012-11-03 18:53:00
2:53 PM,80.1,55.0,42,29.99,10.0,West,6.9,-,0.00,Rain,Light Rain,280,2012-11-03 19:53:00
3:53 PM,79.0,55.0,44,29.98,10.0,Calm,Calm,-,0.00,,Clear,0,2012-11-03 20:53:00
4:53 PM,80.1,54.0,40,29.98,10.0,NNW,6.9,-,N/A,,Clear,330,2012-11-03 21:53:00
5:53 PM,77.0,52.0,42,29.98,10.0,North,8.1,-,N/A,,Clear,360,2012-11-03 22:53:00
6:53 PM,70.0,51.1,51,30.00,10.0,North,9.2,-,N/A,,Clear,350,2012-11-03 23:53:00
7:53 PM,66.9,50.0,54,30.03,10.0,North,8.1,-,N/A,,Clear,350,2012-11-04 00:53:00
8:53 PM,64.0,48.0,56,30.04,10.0,North,6.9,-,N/A,,Clear,350,2012-11-04 01:53:00
9:53 PM,63.0,46.9,56,30.06,10.0,North,9.2,-,N/A,,Clear,360,2012-11-04 02:53:00
10:53 PM,60.1,46.0,60,30.09,10.0,North,3.5,-,N/A,,Scattered Clouds,360,2012-11-04 03:53:00
11:53 PM,59.0,45.0,60,30.08,10.0,NNE,5.8,-,N/A,,Clear,20,2012-11-04 04:53:00